Weather in Pervomaisky

Russia / Orenburg Oblast     51°54′13″N   51°38′27″E
temp.,
°C
wind,
m/s
gust,
m/s
humid.,
%
clouds,
%
prec.,
mm/h
press.,
hPa
HPBL,
m
27 february, sat
sat2723:00−12sse81394100 0.2 1014391
02:00−10sse101694100 2.2 1008459
05:00−7s81495100 6.2 1004511
08:00−3sse5897100 1.6 1001195
11:00+1wsw37100100 1.8 1001299
14:00+1wsw49100100 0.1 1001416
17:00+1wsw59100100 0.1 1001393
20:000wsw5898100 0.2 1000423
28 february, sun
sun2823:000sw5898100 0.4 1000426
02:000sw5898100 0.8 998402
05:00−1wsw5898100 2.4 999358
08:00−10nw6109499 0.4 1001291
11:00−12nw6119299 0.5 1002391
14:00−12nw6992100 0.1 1005413
17:00−13nw61091100 0.1 1008448
20:00−16wnw489598 0.0 1010150
1 march, mon
mon123:00−18wnw479673 0.0 1013120
02:00−18wnw469666 0.0 1014101
05:00−18nw369675 0.0 1016116
08:00−16nw479595 0.1 1018245
11:00−16nw479392 0.2 1019267
14:00−16nw469161 0.0 1021278
17:00−16nw479246 0.0 1022269
20:00−20nw33974 0.0 102326
2 march, tue
tue223:00−21wnw23984 0.0 102420
02:00−22w23997 0.0 102320
05:00−22wsw23998 0.0 102220
08:00−21ssw4410052 0.0 102068
11:00−17ssw699776 0.0 1018255
14:00−13ssw71195100 0.1 1015371
17:00−8ssw81495100 0.5 1012614
20:00−4ssw81495100 1.2 1008719
3 march, wed
wed323:00−3ssw71396100 2.4 1005628
02:00−3sw61196100 0.8 1003426
05:00−3wsw4797100 1.4 1002239
08:00−6w4896100 0.1 1002154
11:00−7w489575 0.1 1003248
14:00−4w599388 0.0 1003479
17:00−2wnw7119194 0.3 1004684
20:00−5wnw6138999 0.0 1005468